Location: Newark
(35.2672°N, 80.7344°W)
Time: 20:52:06
(UTC+00:00)

A-11 Canister half - Pass Details

Date: 27 January 2020
Orbit: 1524 x 1684 km, 47.3° (Epoch: 19 February)

Event Time Altitude Azimuth Distance (km) Brightness Sun altitude
Rises 23:49:27 0° 263° (W) 4,672 13.5 -13.4°
Reaches altitude 10° 23:52:38 10° 269° (W) 3,698 12.3 -14.0°
Maximum altitude 00:01:35 48° 342° (NNW) 1,944 9.6 -15.8°
Enters shadow 00:08:49 17° 50° (NE) 3,228 10.2 -17.3°
